Meteor 2-13 Rocket - Orbit

View from above orbital plane
View from above orbital plane
View from above satellite
View from above satellite

Ground track
Ground track

The orbit data is extracted from the following two-line orbital elements,

1 16409U 85119B   13138.85222649  .00000004  00000-0 -92921-5 0  9744
2 16409 082.5365 106.1511 0013782 251.6779 169.1405 13.84743114384562
Epoch (UTC): 18 May 2013 20:27:12
Eccentricity: 0.0013782
inclination: 82.5365°
perigee height: 937 km
apogee height: 957 km
right ascension of ascending node: 106.1511°
argument of perigee: 251.6779°
revolutions per day: 13.84743114
mean anomaly at epoch: 169.1405°
orbit number at epoch: 38456

The dashed part of the orbit path shows where the satellite is in the earth's shadow,  

Developed and maintained by Chris Peat, Heavens-Above GmbH. Please read the updated FAQ before sending e-mail. Imprint. DLR